Wetterdaten: Montag, 24.06.2013
Datum Zeit Temperatur Luftfeuchte Luftdruck Regen Wind Richtung Richtung Taupunkt Windchill Windben
24.06.2013 00:00 8,8 C 96 % 1021,4 hPa 0,0 l/m 0,2 km/h (0 Bft) NO 45 8,2 C 8,7 C 1,9 km/h (1 Bft)
24.06.2013 00:05 8,7 C 96 % 1021,1 hPa 0,0 l/m 0,6 km/h (0 Bft) N-NO 22 8,1 C 8,7 C 3,2 km/h (1 Bft)
24.06.2013 00:10 8,7 C 96 % 1021,1 hPa 0,0 l/m 0,6 km/h (0 Bft) SO 135 8,1 C 8,7 C 0,0 km/h (0 Bft)
24.06.2013 00:15 8,7 C 96 % 1021,1 hPa 0,0 l/m 0,6 km/h (0 Bft) O-SO 112 8,1 C 8,6 C 0,0 km/h (0 Bft)
24.06.2013 00:20 8,6 C 96 % 1021,1 hPa 0,0 l/m 1,3 km/h (1 Bft) SO 135 8,0 C 8,6 C 4,0 km/h (1 Bft)
24.06.2013 00:25 8,6 C 96 % 1021,3 hPa 0,0 l/m 1,3 km/h (1 Bft) O 90 8,0 C 8,5 C 0,0 km/h (0 Bft)
24.06.2013 00:30 8,6 C 96 % 1021,3 hPa 0,0 l/m 0,6 km/h (0 Bft) SO 135 8,0 C 8,5 C 0,0 km/h (0 Bft)
24.06.2013 00:35 8,5 C 96 % 1021,3 hPa 0,0 l/m 0,5 km/h (0 Bft) NO 45 7,9 C 8,5 C 2,1 km/h (1 Bft)
24.06.2013 00:40 8,5 C 96 % 1021,3 hPa 0,0 l/m 0,3 km/h (0 Bft) SO 135 7,9 C 8,5 C 0,0 km/h (0 Bft)
24.06.2013 00:45 8,5 C 96 % 1021,4 hPa 0,0 l/m 0,6 km/h (0 Bft) O 90 7,9 C 8,5 C 0,0 km/h (0 Bft)
24.06.2013 00:50 8,4 C 96 % 1021,4 hPa 0,0 l/m 1,1 km/h (1 Bft) N-NO 22 7,8 C 8,5 C 4,2 km/h (1 Bft)
24.06.2013 00:55 8,4 C 96 % 1021,4 hPa 0,0 l/m 0,8 km/h (0 Bft) N 360 7,8 C 8,4 C 0,0 km/h (0 Bft)
24.06.2013 01:00 8,4 C 96 % 1021,4 hPa 0,0 l/m 0,3 km/h (0 Bft) S 180 7,8 C 8,4 C 0,0 km/h (0 Bft)
24.06.2013 01:05 8,4 C 96 % 1021,5 hPa 0,0 l/m 0,2 km/h (0 Bft) O-SO 112 7,8 C 8,3 C 0,0 km/h (0 Bft)
24.06.2013 01:10 8,4 C 96 % 1021,5 hPa 0,0 l/m 0,2 km/h (0 Bft) S 180 7,8 C 8,3 C 4,8 km/h (1 Bft)
24.06.2013 01:15 8,4 C 96 % 1021,5 hPa 0,0 l/m 1,4 km/h (1 Bft) NO 45 7,8 C 8,3 C 3,1 km/h (1 Bft)
24.06.2013 01:20 8,4 C 96 % 1021,5 hPa 0,0 l/m 2,1 km/h (1 Bft) O-SO 112 7,8 C 8,3 C 5,5 km/h (1 Bft)
24.06.2013 01:25 8,4 C 96 % 1021,7 hPa 0,0 l/m 1,1 km/h (1 Bft) SO 135 7,8 C 8,3 C 0,0 km/h (0 Bft)
24.06.2013 01:30 8,4 C 96 % 1021,7 hPa 0,0 l/m 0,2 km/h (0 Bft) O-NO 67 7,8 C 8,2 C 0,0 km/h (0 Bft)
24.06.2013 01:35 8,3 C 96 % 1021,7 hPa 0,0 l/m 0,0 km/h (0 Bft) SO 135 7,7 C 8,2 C 0,0 km/h (0 Bft)
24.06.2013 01:40 8,3 C 96 % 1021,7 hPa 0,0 l/m 0,8 km/h (0 Bft) N-NO 22 7,7 C 8,2 C 0,0 km/h (0 Bft)
24.06.2013 01:45 8,2 C 96 % 1021,6 hPa 0,0 l/m 0,8 km/h (0 Bft) SO 135 7,6 C 8,2 C 0,0 km/h (0 Bft)
24.06.2013 01:50 8,2 C 96 % 1021,6 hPa 0,0 l/m 0,3 km/h (0 Bft) NO 45 7,6 C 8,2 C 0,0 km/h (0 Bft)
24.06.2013 01:55 8,2 C 96 % 1021,6 hPa 0,0 l/m 0,5 km/h (0 Bft) O-NO 67 7,6 C 8,2 C 2,9 km/h (1 Bft)
24.06.2013 02:00 8,1 C 96 % 1021,6 hPa 0,0 l/m 0,5 km/h (0 Bft) O-SO 112 7,5 C 8,0 C 0,0 km/h (0 Bft)
24.06.2013 02:05 8,0 C 96 % 1021,2 hPa 0,0 l/m 0,3 km/h (0 Bft) O 90 7,4 C 7,9 C 0,0 km/h (0 Bft)
24.06.2013 02:10 7,9 C 96 % 1021,2 hPa 0,0 l/m 0,2 km/h (0 Bft) O-SO 112 7,3 C 7,8 C 0,0 km/h (0 Bft)
24.06.2013 02:15 7,9 C 96 % 1021,2 hPa 0,0 l/m 0,0 km/h (0 Bft) SO 135 7,3 C 7,8 C 0,0 km/h (0 Bft)
24.06.2013 02:20 7,8 C 96 % 1021,2 hPa 0,0 l/m 0,2 km/h (0 Bft) O 90 7,2 C 7,7 C 0,0 km/h (0 Bft)
24.06.2013 02:25 7,8 C 96 % 1021,1 hPa 0,0 l/m 0,2 km/h (0 Bft) O 90 7,2 C 7,6 C 0,0 km/h (0 Bft)
24.06.2013 02:30 7,8 C 96 % 1021,1 hPa 0,0 l/m 0,0 km/h (0 Bft) O-NO 67 7,2 C 7,5 C 0,0 km/h (0 Bft)
24.06.2013 02:35 7,8 C 96 % 1021,1 hPa 0,0 l/m 0,0 km/h (0 Bft) NO 45 7,2 C 7,6 C 0,0 km/h (0 Bft)
24.06.2013 02:40 7,8 C 96 % 1021,1 hPa 0,0 l/m 0,0 km/h (0 Bft) NO 45 7,2 C 7,6 C 0,0 km/h (0 Bft)
24.06.2013 02:45 7,8 C 96 % 1021,2 hPa 0,0 l/m 0,2 km/h (0 Bft) O-NO 67 7,2 C 7,5 C 2,6 km/h (1 Bft)
24.06.2013 02:50 7,8 C 96 % 1021,2 hPa 0,0 l/m 0,6 km/h (0 Bft) NO 45 7,2 C 7,6 C 0,0 km/h (0 Bft)
24.06.2013 02:55 7,8 C 96 % 1021,2 hPa 0,0 l/m 1,1 km/h (1 Bft) NO 45 7,2 C 7,6 C 3,4 km/h (1 Bft)
24.06.2013 03:00 7,9 C 96 % 1021,2 hPa 0,0 l/m 1,6 km/h (1 Bft) O 90 7,3 C 7,7 C 2,3 km/h (1 Bft)
24.06.2013 03:05 7,8 C 96 % 1021,1 hPa 0,0 l/m 1,9 km/h (1 Bft) NO 45 7,2 C 7,7 C 2,3 km/h (1 Bft)
24.06.2013 03:10 7,8 C 96 % 1021,1 hPa 0,0 l/m 0,8 km/h (0 Bft) O-SO 112 7,2 C 7,6 C 0,0 km/h (0 Bft)
24.06.2013 03:15 7,8 C 96 % 1021,1 hPa 0,0 l/m 0,6 km/h (0 Bft) S-SO 157 7,2 C 7,7 C 0,0 km/h (0 Bft)
24.06.2013 03:20 7,8 C 96 % 1021,1 hPa 0,0 l/m 1,3 km/h (1 Bft) S 180 7,2 C 7,7 C 1,8 km/h (1 Bft)
24.06.2013 03:25 7,8 C 96 % 1021,2 hPa 0,0 l/m 1,1 km/h (1 Bft) SO 135 7,2 C 7,7 C 2,6 km/h (1 Bft)
24.06.2013 03:30 7,8 C 96 % 1021,2 hPa 0,0 l/m 1,1 km/h (1 Bft) NO 45 7,2 C 7,7 C 3,4 km/h (1 Bft)
24.06.2013 03:35 7,8 C 96 % 1021,2 hPa 0,0 l/m 1,3 km/h (1 Bft) O-NO 67 7,2 C 7,7 C 0,0 km/h (0 Bft)
24.06.2013 03:40 7,8 C 96 % 1021,2 hPa 0,0 l/m 2,3 km/h (1 Bft) O-NO 67 7,2 C 7,7 C 5,8 km/h (2 Bft)
24.06.2013 03:45 7,8 C 96 % 1021,1 hPa 0,0 l/m 2,4 km/h (1 Bft) S-SO 157 7,2 C 7,7 C 2,4 km/h (1 Bft)
24.06.2013 03:50 7,7 C 96 % 1021,1 hPa 0,0 l/m 2,1 km/h (1 Bft) O-NO 67 7,1 C 7,7 C 2,1 km/h (1 Bft)
24.06.2013 03:55 7,7 C 96 % 1021,1 hPa 0,0 l/m 1,4 km/h (1 Bft) N-NO 22 7,1 C 7,6 C 2,1 km/h (1 Bft)
24.06.2013 04:00 7,7 C 96 % 1021,1 hPa 0,0 l/m 1,1 km/h (1 Bft) S 180 7,1 C 7,5 C 3,2 km/h (1 Bft)
24.06.2013 04:05 7,7 C 96 % 1020,9 hPa 0,0 l/m 1,3 km/h (1 Bft) O-SO 112 7,1 C 7,6 C 0,0 km/h (0 Bft)
24.06.2013 04:10 7,7 C 96 % 1020,9 hPa 0,0 l/m 0,8 km/h (0 Bft) O 90 7,1 C 7,5 C 0,0 km/h (0 Bft)
24.06.2013 04:15 7,7 C 96 % 1020,9 hPa 0,0 l/m 0,2 km/h (0 Bft) NO 45 7,1 C 7,5 C 0,0 km/h (0 Bft)
24.06.2013 04:20 7,6 C 96 % 1020,9 hPa 0,0 l/m 0,0 km/h (0 Bft) SW 225 7,0 C 7,5 C 0,0 km/h (0 Bft)
24.06.2013 04:25 7,7 C 96 % 1021,2 hPa 0,0 l/m 0,0 km/h (0 Bft) W-SW 247 7,1 C 7,5 C 0,0 km/h (0 Bft)
24.06.2013 04:30 7,7 C 96 % 1021,2 hPa 0,0 l/m 0,3 km/h (0 Bft) NO 45 7,1 C 7,5 C 0,0 km/h (0 Bft)
24.06.2013 04:35 7,7 C 96 % 1021,2 hPa 0,0 l/m 0,3 km/h (0 Bft) O-NO 67 7,1 C 7,5 C 0,0 km/h (0 Bft)
24.06.2013 04:40 7,7 C 96 % 1021,2 hPa 0,0 l/m 0,3 km/h (0 Bft) O-NO 67 7,1 C 7,6 C 0,0 km/h (0 Bft)
24.06.2013 04:45 7,7 C 96 % 1021,2 hPa 0,0 l/m 0,3 km/h (0 Bft) NO 45 7,1 C 7,6 C 1,8 km/h (1 Bft)
24.06.2013 04:50 7,8 C 96 % 1021,2 hPa 0,0 l/m 0,3 km/h (0 Bft) NO 45 7,2 C 7,7 C 2,4 km/h (1 Bft)
24.06.2013 04:55 7,8 C 96 % 1021,2 hPa 0,0 l/m 0,5 km/h (0 Bft) O-NO 67 7,2 C 7,7 C 1,9 km/h (1 Bft)
24.06.2013 05:00 7,8 C 96 % 1021,2 hPa 0,0 l/m 0,3 km/h (0 Bft) O 90 7,2 C 7,8 C 0,0 km/h (0 Bft)
24.06.2013 05:05 7,8 C 96 % 1021,3 hPa 0,0 l/m 0,8 km/h (0 Bft) NO 45 7,2 C 7,8 C 1,6 km/h (1 Bft)
24.06.2013 05:10 7,8 C 96 % 1021,3 hPa 0,0 l/m 0,6 km/h (0 Bft) O-NO 67 7,2 C 7,8 C 2,1 km/h (1 Bft)
24.06.2013 05:15 7,8 C 96 % 1021,3 hPa 0,0 l/m 0,2 km/h (0 Bft) N 360 7,2 C 7,8 C 2,4 km/h (1 Bft)
24.06.2013 05:20 7,7 C 96 % 1021,3 hPa 0,0 l/m 0,3 km/h (0 Bft) O-NO 67 7,1 C 7,7 C 2,1 km/h (1 Bft)
24.06.2013 05:25 7,7 C 96 % 1021,1 hPa 0,0 l/m 0,6 km/h (0 Bft) O-NO 67 7,1 C 7,7 C 0,0 km/h (0 Bft)
24.06.2013 05:30 7,7 C 96 % 1021,1 hPa 0,0 l/m 0,8 km/h (0 Bft) O 90 7,1 C 7,6 C 2,3 km/h (1 Bft)
24.06.2013 05:35 7,7 C 96 % 1021,1 hPa 0,0 l/m 0,3 km/h (0 Bft) O 90 7,1 C 7,6 C 0,0 km/h (0 Bft)
24.06.2013 05:40 7,7 C 96 % 1021,1 hPa 0,0 l/m 0,6 km/h (0 Bft) NO 45 7,1 C 7,7 C 2,6 km/h (1 Bft)
24.06.2013 05:45 7,7 C 96 % 1021,0 hPa 0,0 l/m 0,8 km/h (0 Bft) NO 45 7,1 C 7,7 C 0,0 km/h (0 Bft)
24.06.2013 05:50 7,8 C 96 % 1021,0 hPa 0,0 l/m 1,0 km/h (0 Bft) NO 45 7,2 C 7,7 C 1,8 km/h (1 Bft)
24.06.2013 05:55 7,8 C 96 % 1021,0 hPa 0,0 l/m 0,6 km/h (0 Bft) N-NO 22 7,2 C 7,7 C 0,0 km/h (0 Bft)
24.06.2013 06:00 7,8 C 96 % 1021,0 hPa 0,0 l/m 0,3 km/h (0 Bft) O-NO 67 7,2 C 7,7 C 0,0 km/h (0 Bft)
24.06.2013 06:05 7,8 C 96 % 1021,0 hPa 0,0 l/m 0,2 km/h (0 Bft) NO 45 7,2 C 7,7 C 2,6 km/h (1 Bft)
24.06.2013 06:10 7,9 C 96 % 1021,0 hPa 0,0 l/m 1,3 km/h (1 Bft) NO 45 7,3 C 7,8 C 2,3 km/h (1 Bft)
24.06.2013 06:15 7,9 C 96 % 1021,0 hPa 0,0 l/m 1,9 km/h (1 Bft) NO 45 7,3 C 7,8 C 2,6 km/h (1 Bft)
24.06.2013 06:20 7,8 C 96 % 1021,0 hPa 0,0 l/m 1,6 km/h (1 Bft) SO 135 7,2 C 7,8 C 0,0 km/h (0 Bft)
24.06.2013 06:25 7,9 C 96 % 1020,9 hPa 0,0 l/m 1,3 km/h (1 Bft) NO 45 7,3 C 7,8 C 2,6 km/h (1 Bft)
24.06.2013 06:30 7,9 C 96 % 1020,9 hPa 0,0 l/m 0,8 km/h (0 Bft) NO 45 7,3 C 7,9 C 1,9 km/h (1 Bft)
24.06.2013 06:35 8,0 C 96 % 1020,9 hPa 0,0 l/m 0,5 km/h (0 Bft) O 90 7,4 C 8,0 C 0,0 km/h (0 Bft)
24.06.2013 06:40 8,2 C 96 % 1020,9 hPa 0,0 l/m 1,0 km/h (0 Bft) NO 45 7,6 C 8,1 C 3,1 km/h (1 Bft)
24.06.2013 06:45 8,3 C 96 % 1020,9 hPa 0,0 l/m 1,0 km/h (0 Bft) O-NO 67 7,7 C 8,2 C 0,0 km/h (0 Bft)
24.06.2013 06:50 8,3 C 96 % 1020,9 hPa 0,0 l/m 0,3 km/h (0 Bft) O-NO 67 7,7 C 8,3 C 2,1 km/h (1 Bft)
24.06.2013 06:55 8,4 C 96 % 1020,9 hPa 0,0 l/m 0,3 km/h (0 Bft) SO 135 7,8 C 8,5 C 0,0 km/h (0 Bft)
24.06.2013 07:00 8,5 C 96 % 1020,9 hPa 0,0 l/m 0,5 km/h (0 Bft) O 90 7,9 C 8,6 C 3,4 km/h (1 Bft)
24.06.2013 07:05 8,5 C 96 % 1020,8 hPa 0,0 l/m 0,5 km/h (0 Bft) O-NO 67 7,9 C 8,7 C 0,0 km/h (0 Bft)
24.06.2013 07:10 8,6 C 96 % 1020,8 hPa 0,0 l/m 0,5 km/h (0 Bft) NO 45 8,0 C 8,7 C 0,0 km/h (0 Bft)
24.06.2013 07:15 8,6 C 96 % 1020,8 hPa 0,0 l/m 0,3 km/h (0 Bft) NO 45 8,0 C 8,8 C 2,1 km/h (1 Bft)
24.06.2013 07:20 8,6 C 96 % 1020,8 hPa 0,0 l/m 1,0 km/h (0 Bft) O 90 8,0 C 8,9 C 2,3 km/h (1 Bft)
24.06.2013 07:25 8,8 C 96 % 1020,8 hPa 0,0 l/m 1,4 km/h (1 Bft) O-NO 67 8,2 C 9,1 C 0,0 km/h (0 Bft)
24.06.2013 07:30 9,1 C 96 % 1020,8 hPa 0,0 l/m 1,4 km/h (1 Bft) O-NO 67 8,5 C 9,4 C 3,1 km/h (1 Bft)
24.06.2013 07:35 9,3 C 96 % 1020,8 hPa 0,0 l/m 1,1 km/h (1 Bft) S-SO 157 8,7 C 9,6 C 0,0 km/h (0 Bft)
24.06.2013 07:40 9,6 C 96 % 1020,8 hPa 0,0 l/m 0,8 km/h (0 Bft) O-NO 67 9,0 C 10,1 C 0,0 km/h (0 Bft)
24.06.2013 07:45 9,9 C 96 % 1020,8 hPa 0,0 l/m 0,2 km/h (0 Bft) NO 45 9,3 C 10,4 C 0,0 km/h (0 Bft)
24.06.2013 07:50 10,1 C 96 % 1020,8 hPa 0,0 l/m 0,2 km/h (0 Bft) O 90 9,5 C 10,9 C 0,0 km/h (0 Bft)
24.06.2013 07:55 10,2 C 96 % 1020,8 hPa 0,0 l/m 0,0 km/h (0 Bft) W-NW 292 9,6 C 11,2 C 0,0 km/h (0 Bft)
24.06.2013 08:00 10,3 C 96 % 1020,8 hPa 0,0 l/m 0,6 km/h (0 Bft) S-SO 157 9,7 C 11,4 C 3,2 km/h (1 Bft)
24.06.2013 08:05 10,3 C 96 % 1020,7 hPa 0,0 l/m 1,1 km/h (1 Bft) S 180 9,7 C 11,4 C 2,1 km/h (1 Bft)
24.06.2013 08:10 10,4 C 96 % 1020,7 hPa 0,0 l/m 1,4 km/h (1 Bft) O-SO 112 9,8 C 11,4 C 2,9 km/h (1 Bft)
24.06.2013 08:15 10,3 C 96 % 1020,7 hPa 0,0 l/m 1,1 km/h (1 Bft) SO 135 9,7 C 11,4 C 0,0 km/h (0 Bft)
24.06.2013 08:20 10,3 C 96 % 1020,7 hPa 0,0 l/m 1,4 km/h (1 Bft) S 180 9,7 C 11,4 C 2,7 km/h (1 Bft)
24.06.2013 08:25 10,3 C 96 % 1021,1 hPa 0,0 l/m 1,0 km/h (0 Bft) SO 135 9,7 C 11,4 C 0,0 km/h (0 Bft)
24.06.2013 08:30 10,3 C 96 % 1021,1 hPa 0,0 l/m 0,6 km/h (0 Bft) S-SO 157 9,7 C 11,4 C 5,0 km/h (1 Bft)
24.06.2013 08:35 10,2 C 96 % 1021,1 hPa 0,0 l/m 0,6 km/h (0 Bft) S-SO 157 9,6 C 11,4 C 0,0 km/h (0 Bft)
24.06.2013 08:40 10,3 C 96 % 1021,1 hPa 0,0 l/m 1,1 km/h (1 Bft) N-NW 337 9,7 C 11,3 C 1,6 km/h (1 Bft)
24.06.2013 08:45 10,3 C 96 % 1020,9 hPa 0,0 l/m 1,3 km/h (1 Bft) SO 135 9,7 C 11,4 C 4,0 km/h (1 Bft)
24.06.2013 08:50 10,4 C 96 % 1020,9 hPa 0,0 l/m 1,6 km/h (1 Bft) S-SW 202 9,8 C 11,4 C 0,0 km/h (0 Bft)
24.06.2013 08:55 10,4 C 96 % 1020,9 hPa 0,0 l/m 1,8 km/h (1 Bft) S 180 9,8 C 11,4 C 2,3 km/h (1 Bft)
24.06.2013 09:00 10,3 C 96 % 1020,9 hPa 0,0 l/m 1,4 km/h (1 Bft) S 180 9,7 C 11,5 C 3,4 km/h (1 Bft)
24.06.2013 09:05 10,3 C 96 % 1021,1 hPa 0,0 l/m 2,1 km/h (1 Bft) SO 135 9,7 C 11,4 C 3,7 km/h (1 Bft)
24.06.2013 09:10 10,5 C 96 % 1021,1 hPa 0,0 l/m 2,3 km/h (1 Bft) S 180 9,9 C 11,3 C 1,6 km/h (1 Bft)
24.06.2013 09:15 10,5 C 95 % 1021,1 hPa 0,0 l/m 1,8 km/h (1 Bft) S 180 9,7 C 11,2 C 2,7 km/h (1 Bft)
24.06.2013 09:20 10,3 C 95 % 1021,1 hPa 0,0 l/m 1,4 km/h (1 Bft) S-SO 157 9,5 C 10,9 C 3,5 km/h (1 Bft)
24.06.2013 09:25 10,2 C 95 % 1021,0 hPa 0,0 l/m 1,4 km/h (1 Bft) S 180 9,4 C 10,7 C 4,5 km/h (1 Bft)
24.06.2013 09:30 10,1 C 95 % 1021,0 hPa 0,0 l/m 1,4 km/h (1 Bft) S-SO 157 9,3 C 10,6 C 5,3 km/h (1 Bft)
24.06.2013 09:35 10,1 C 95 % 1021,0 hPa 0,0 l/m 1,4 km/h (1 Bft) O 90 9,3 C 10,5 C 0,0 km/h (0 Bft)
24.06.2013 09:40 10,1 C 95 % 1021,0 hPa 0,0 l/m 0,6 km/h (0 Bft) O-NO 67 9,3 C 10,6 C 0,0 km/h (0 Bft)
24.06.2013 09:45 10,3 C 95 % 1021,2 hPa 0,0 l/m 0,0 km/h (0 Bft) O-SO 112 9,5 C 10,9 C 0,0 km/h (0 Bft)
24.06.2013 09:50 10,5 C 95 % 1021,2 hPa 0,0 l/m 0,2 km/h (0 Bft) O-SO 112 9,7 C 10,9 C 0,0 km/h (0 Bft)
24.06.2013 09:55 10,5 C 95 % 1021,2 hPa 0,0 l/m 0,2 km/h (0 Bft) S-SO 157 9,7 C 11,1 C 0,0 km/h (0 Bft)
24.06.2013 10:00 10,7 C 95 % 1021,2 hPa 0,0 l/m 0,3 km/h (0 Bft) O-NO 67 9,9 C 11,1 C 0,0 km/h (0 Bft)
24.06.2013 10:05 10,9 C 95 % 1021,4 hPa 0,0 l/m 0,6 km/h (0 Bft) W-SW 247 10,1 C 11,1 C 0,0 km/h (0 Bft)
24.06.2013 10:10 11,1 C 95 % 1021,4 hPa 0,0 l/m 0,5 km/h (0 Bft) SW 225 10,3 C 11,4 C 0,0 km/h (0 Bft)
24.06.2013 10:15 11,1 C 95 % 1021,4 hPa 0,0 l/m 0,3 km/h (0 Bft) S-SW 202 10,3 C 11,4 C 1,6 km/h (1 Bft)
24.06.2013 10:20 11,4 C 95 % 1021,4 hPa 0,0 l/m 0,3 km/h (0 Bft) N 360 10,6 C 11,8 C 0,0 km/h (0 Bft)
24.06.2013 10:25 11,7 C 95 % 1021,9 hPa 0,0 l/m 0,2 km/h (0 Bft) W-NW 292 10,9 C 12,1 C 0,0 km/h (0 Bft)
24.06.2013 10:30 12,0 C 94 % 1021,9 hPa 0,0 l/m 0,8 km/h (0 Bft) W-SW 247 11,1 C 12,5 C 1,8 km/h (1 Bft)
24.06.2013 10:35 11,9 C 94 % 1021,9 hPa 0,0 l/m 0,8 km/h (0 Bft) S 180 11,0 C 12,7 C 0,0 km/h (0 Bft)
24.06.2013 10:40 12,5 C 94 % 1021,9 hPa 0,0 l/m 0,5 km/h (0 Bft) S 180 11,6 C 13,2 C 3,9 km/h (1 Bft)
24.06.2013 10:45 12,0 C 94 % 1021,9 hPa 0,0 l/m 1,3 km/h (1 Bft) S 180 11,1 C 12,9 C 4,3 km/h (1 Bft)
24.06.2013 10:50 11,4 C 94 % 1021,9 hPa 0,0 l/m 3,4 km/h (1 Bft) S-SO 157 10,5 C 12,1 C 12,1 km/h (2 Bft)
24.06.2013 10:55 9,6 C 93 % 1021,9 hPa 1,4 l/m 6,3 km/h (2 Bft) S 180 8,5 C 10,6 C 13,7 km/h (3 Bft)
24.06.2013 11:00 8,6 C 92 % 1021,9 hPa 1,4 l/m 6,8 km/h (2 Bft) N-NO 22 7,4 C 8,1 C 17,1 km/h (3 Bft)
24.06.2013 11:05 8,5 C 92 % 1021,5 hPa 0,7 l/m 4,0 km/h (1 Bft) O 90 7,3 C 8,8 C 1,6 km/h (1 Bft)
24.06.2013 11:10 8,8 C 92 % 1021,5 hPa 0,0 l/m 1,4 km/h (1 Bft) O-NO 67 7,6 C 8,9 C 2,4 km/h (1 Bft)
24.06.2013 11:15 9,0 C 92 % 1021,5 hPa 0,0 l/m 1,3 km/h (1 Bft) N-NO 22 7,8 C 9,1 C 2,3 km/h (1 Bft)
24.06.2013 11:20 9,5 C 93 % 1021,5 hPa 0,0 l/m 0,8 km/h (0 Bft) NO 45 8,4 C 9,6 C 0,0 km/h (0 Bft)
24.06.2013 11:25 9,8 C 93 % 1021,6 hPa 0,0 l/m 0,2 km/h (0 Bft) O-NO 67 8,7 C 10,0 C 1,6 km/h (1 Bft)
24.06.2013 11:30 10,2 C 93 % 1021,6 hPa 0,0 l/m 0,2 km/h (0 Bft) O-SO 112 9,1 C 10,5 C 0,0 km/h (0 Bft)
24.06.2013 11:35 10,5 C 93 % 1021,6 hPa 0,0 l/m 0,6 km/h (0 Bft) S-SO 157 9,4 C 10,8 C 3,4 km/h (1 Bft)
24.06.2013 11:40 10,7 C 94 % 1021,6 hPa 0,0 l/m 1,4 km/h (1 Bft) N 360 9,8 C 11,0 C 0,0 km/h (0 Bft)
24.06.2013 11:45 10,7 C 94 % 1022,2 hPa 0,0 l/m 1,4 km/h (1 Bft) S 180 9,8 C 11,3 C 2,3 km/h (1 Bft)
24.06.2013 11:50 10,8 C 94 % 1022,2 hPa 0,7 l/m 1,9 km/h (1 Bft) S-SO 157 9,9 C 11,3 C 5,8 km/h (2 Bft)
24.06.2013 11:55 10,9 C 94 % 1022,2 hPa 0,0 l/m 2,7 km/h (1 Bft) S-SO 157 10,0 C 11,2 C 2,4 km/h (1 Bft)
24.06.2013 12:00 11,1 C 94 % 1022,2 hPa 0,0 l/m 2,6 km/h (1 Bft) O-NO 67 10,2 C 11,5 C 3,4 km/h (1 Bft)
24.06.2013 12:05 11,0 C 94 % 1021,9 hPa 0,0 l/m 1,6 km/h (1 Bft) S 180 10,1 C 11,4 C 0,0 km/h (0 Bft)
24.06.2013 12:10 11,1 C 94 % 1021,9 hPa 0,0 l/m 0,8 km/h (0 Bft) N 360 10,2 C 11,5 C 0,0 km/h (0 Bft)
24.06.2013 12:15 11,2 C 94 % 1021,9 hPa 0,0 l/m 0,2 km/h (0 Bft) SO 135 10,3 C 11,7 C 0,0 km/h (0 Bft)
24.06.2013 12:20 11,4 C 94 % 1021,9 hPa 0,0 l/m 0,3 km/h (0 Bft) S 180 10,5 C 12,0 C 0,0 km/h (0 Bft)
24.06.2013 12:25 11,3 C 94 % 1022,2 hPa 0,0 l/m 1,0 km/h (0 Bft) NO 45 10,4 C 12,2 C 3,4 km/h (1 Bft)
24.06.2013 12:30 11,1 C 94 % 1022,2 hPa 0,0 l/m 0,8 km/h (0 Bft) O 90 10,2 C 12,2 C 2,4 km/h (1 Bft)
24.06.2013 12:35 11,0 C 94 % 1022,2 hPa 0,0 l/m 1,0 km/h (0 Bft) S 180 10,1 C 11,9 C 3,2 km/h (1 Bft)
24.06.2013 12:40 10,5 C 94 % 1022,2 hPa 0,0 l/m 2,9 km/h (1 Bft) W-SW 247 9,6 C 11,1 C 3,4 km/h (1 Bft)
24.06.2013 12:45 10,0 C 94 % 1022,2 hPa 0,7 l/m 4,7 km/h (1 Bft) S 180 9,1 C 10,6 C 9,7 km/h (2 Bft)
24.06.2013 12:50 9,4 C 94 % 1022,2 hPa 0,0 l/m 5,8 km/h (2 Bft) S 180 8,5 C 9,2 C 4,3 km/h (1 Bft)
24.06.2013 12:55 9,4 C 94 % 1022,2 hPa 0,0 l/m 4,7 km/h (1 Bft) S-SW 202 8,5 C 9,3 C 2,7 km/h (1 Bft)
24.06.2013 13:00 9,5 C 94 % 1022,2 hPa 0,7 l/m 1,8 km/h (1 Bft) S-SO 157 8,6 C 9,4 C 3,2 km/h (1 Bft)
24.06.2013 13:05 9,5 C 94 % 1022,2 hPa 0,0 l/m 1,9 km/h (1 Bft) S 180 8,6 C 9,3 C 3,2 km/h (1 Bft)
24.06.2013 13:10 9,7 C 94 % 1022,2 hPa 0,0 l/m 2,3 km/h (1 Bft) S-SO 157 8,8 C 9,4 C 2,9 km/h (1 Bft)
24.06.2013 13:15 9,7 C 94 % 1022,2 hPa 0,0 l/m 1,4 km/h (1 Bft) W-NW 292 8,8 C 9,6 C 0,0 km/h (0 Bft)
24.06.2013 13:20 10,1 C 94 % 1022,2 hPa 0,7 l/m 1,6 km/h (1 Bft) S-SO 157 9,2 C 9,8 C 3,9 km/h (1 Bft)
24.06.2013 13:25 10,2 C 94 % 1022,1 hPa 0,0 l/m 1,9 km/h (1 Bft) NO 45 9,3 C 10,0 C 2,4 km/h (1 Bft)
24.06.2013 13:30 10,5 C 94 % 1022,1 hPa 0,7 l/m 1,8 km/h (1 Bft) S 180 9,6 C 10,2 C 2,4 km/h (1 Bft)
24.06.2013 13:35 10,4 C 94 % 1022,1 hPa 0,0 l/m 1,8 km/h (1 Bft) W-SW 247 9,5 C 10,2 C 0,0 km/h (0 Bft)
24.06.2013 13:40 10,6 C 94 % 1022,1 hPa 0,0 l/m 1,6 km/h (1 Bft) SO 135 9,7 C 10,5 C 0,0 km/h (0 Bft)
24.06.2013 13:45 11,2 C 94 % 1022,9 hPa 0,0 l/m 1,1 km/h (1 Bft) S 180 10,3 C 10,9 C 2,9 km/h (1 Bft)
24.06.2013 13:50 11,6 C 94 % 1022,9 hPa 0,0 l/m 1,6 km/h (1 Bft) S-SW 202 10,7 C 11,8 C 2,7 km/h (1 Bft)
24.06.2013 13:55 11,8 C 94 % 1022,9 hPa 0,0 l/m 2,3 km/h (1 Bft) S 180 10,9 C 12,3 C 6,9 km/h (2 Bft)
24.06.2013 14:00 12,1 C 93 % 1022,9 hPa 0,0 l/m 2,9 km/h (1 Bft) S 180 11,0 C 13,1 C 3,5 km/h (1 Bft)
24.06.2013 14:05 12,6 C 93 % 1022,8 hPa 0,0 l/m 3,1 km/h (1 Bft) S-SW 202 11,5 C 13,7 C 4,2 km/h (1 Bft)
24.06.2013 14:10 13,4 C 92 % 1022,8 hPa 0,0 l/m 3,4 km/h (1 Bft) S-SO 157 12,1 C 15,0 C 10,0 km/h (2 Bft)
24.06.2013 14:15 13,5 C 91 % 1022,8 hPa 0,0 l/m 3,9 km/h (1 Bft) SO 135 12,1 C 15,4 C 5,8 km/h (2 Bft)
24.06.2013 14:20 12,8 C 92 % 1022,8 hPa 0,0 l/m 5,1 km/h (1 Bft) S-SW 202 11,5 C 15,3 C 10,5 km/h (2 Bft)
24.06.2013 14:25 12,3 C 91 % 1022,7 hPa 0,0 l/m 5,6 km/h (1 Bft) S-SO 157 10,9 C 14,7 C 8,4 km/h (2 Bft)
24.06.2013 14:30 11,4 C 91 % 1022,7 hPa 0,0 l/m 5,3 km/h (1 Bft) O-SO 112 10,0 C 13,5 C 2,7 km/h (1 Bft)
24.06.2013 14:35 11,2 C 91 % 1022,7 hPa 0,0 l/m 4,3 km/h (1 Bft) O 90 9,8 C 13,0 C 8,7 km/h (2 Bft)
24.06.2013 14:40 11,0 C 91 % 1022,7 hPa 0,0 l/m 4,5 km/h (1 Bft) S 180 9,6 C 12,1 C 11,1 km/h (2 Bft)
24.06.2013 14:45 10,8 C 92 % 1022,4 hPa 0,0 l/m 5,1 km/h (1 Bft) W 270 9,6 C 11,6 C 3,9 km/h (1 Bft)
24.06.2013 14:50 10,8 C 92 % 1022,4 hPa 0,0 l/m 4,2 km/h (1 Bft) S 180 9,6 C 10,9 C 4,8 km/h (1 Bft)
24.06.2013 14:55 10,9 C 92 % 1022,4 hPa 0,0 l/m 3,9 km/h (1 Bft) S 180 9,7 C 10,7 C 10,5 km/h (2 Bft)
24.06.2013 15:00 10,3 C 92 % 1022,4 hPa 0,7 l/m 4,3 km/h (1 Bft) W-SW 247 9,1 C 10,3 C 5,0 km/h (1 Bft)
24.06.2013 15:05 10,4 C 92 % 1022,5 hPa 0,0 l/m 4,0 km/h (1 Bft) S-SW 202 9,2 C 10,2 C 5,5 km/h (1 Bft)
24.06.2013 15:10 10,5 C 92 % 1022,5 hPa 0,0 l/m 3,5 km/h (1 Bft) S-SW 202 9,3 C 10,2 C 2,9 km/h (1 Bft)
24.06.2013 15:15 10,4 C 93 % 1022,5 hPa 0,0 l/m 3,9 km/h (1 Bft) SW 225 9,3 C 10,2 C 4,3 km/h (1 Bft)
24.06.2013 15:20 10,3 C 93 % 1022,5 hPa 0,0 l/m 4,5 km/h (1 Bft) S 180 9,2 C 10,2 C 6,1 km/h (2 Bft)
24.06.2013 15:25 10,5 C 93 % 1022,4 hPa 0,7 l/m 5,0 km/h (1 Bft) S 180 9,4 C 10,0 C 3,9 km/h (1 Bft)
24.06.2013 15:30 10,7 C 93 % 1022,4 hPa 0,0 l/m 5,0 km/h (1 Bft) S-SW 202 9,6 C 10,3 C 6,0 km/h (2 Bft)
24.06.2013 15:35 10,7 C 93 % 1022,4 hPa 0,0 l/m 4,8 km/h (1 Bft) S-SW 202 9,6 C 10,5 C 7,4 km/h (2 Bft)
24.06.2013 15:40 10,5 C 93 % 1022,4 hPa 0,0 l/m 5,6 km/h (1 Bft) S 180 9,4 C 9,9 C 4,8 km/h (1 Bft)
24.06.2013 15:45 10,5 C 93 % 1022,5 hPa 0,0 l/m 5,5 km/h (1 Bft) SO 135 9,4 C 9,8 C 8,2 km/h (2 Bft)
24.06.2013 15:50 10,3 C 93 % 1022,5 hPa 0,0 l/m 4,7 km/h (1 Bft) W-SW 247 9,2 C 10,1 C 4,3 km/h (1 Bft)
24.06.2013 15:55 10,2 C 93 % 1022,5 hPa 0,0 l/m 4,5 km/h (1 Bft) S 180 9,1 C 9,9 C 4,2 km/h (1 Bft)
24.06.2013 16:00 10,3 C 93 % 1022,5 hPa 0,0 l/m 3,7 km/h (1 Bft) S 180 9,2 C 10,1 C 8,4 km/h (2 Bft)
24.06.2013 16:05 10,1 C 93 % 1022,6 hPa 0,0 l/m 3,9 km/h (1 Bft) SO 135 9,0 C 10,1 C 6,8 km/h (2 Bft)
24.06.2013 16:10 10,5 C 94 % 1022,6 hPa 0,0 l/m 4,0 km/h (1 Bft) S 180 9,6 C 10,2 C 2,9 km/h (1 Bft)
24.06.2013 16:15 10,5 C 94 % 1022,6 hPa 0,0 l/m 3,5 km/h (1 Bft) SO 135 9,6 C 10,3 C 4,8 km/h (1 Bft)
24.06.2013 16:20 10,4 C 94 % 1022,6 hPa 0,0 l/m 4,2 km/h (1 Bft) SO 135 9,5 C 10,3 C 4,7 km/h (1 Bft)
24.06.2013 16:25 10,5 C 94 % 1022,6 hPa 0,0 l/m 4,5 km/h (1 Bft) S 180 9,6 C 10,2 C 3,7 km/h (1 Bft)
24.06.2013 16:30 10,5 C 94 % 1022,6 hPa 0,0 l/m 3,7 km/h (1 Bft) O 90 9,6 C 10,4 C 4,0 km/h (1 Bft)
24.06.2013 16:35 10,5 C 94 % 1022,6 hPa 0,0 l/m 3,2 km/h (1 Bft) SO 135 9,6 C 10,5 C 1,8 km/h (1 Bft)
24.06.2013 16:40 10,7 C 94 % 1022,6 hPa 0,0 l/m 2,6 km/h (1 Bft) S-SW 202 9,8 C 10,6 C 2,6 km/h (1 Bft)
24.06.2013 16:45 10,7 C 94 % 1022,7 hPa 0,0 l/m 2,6 km/h (1 Bft) S-SO 157 9,8 C 10,6 C 3,7 km/h (1 Bft)
24.06.2013 16:50 10,7 C 94 % 1022,7 hPa 0,0 l/m 2,1 km/h (1 Bft) SO 135 9,8 C 10,7 C 3,4 km/h (1 Bft)
24.06.2013 16:55 10,8 C 94 % 1022,7 hPa 0,0 l/m 1,3 km/h (1 Bft) S 180 9,9 C 10,9 C 0,0 km/h (0 Bft)
24.06.2013 17:00 10,8 C 94 % 1022,7 hPa 0,0 l/m 1,4 km/h (1 Bft) S-SO 157 9,9 C 11,1 C 5,3 km/h (1 Bft)
24.06.2013 17:05 10,7 C 94 % 1022,6 hPa 0,0 l/m 1,9 km/h (1 Bft) S 180 9,8 C 11,0 C 2,4 km/h (1 Bft)
24.06.2013 17:10 10,4 C 94 % 1022,6 hPa 0,0 l/m 3,5 km/h (1 Bft) S 180 9,5 C 10,8 C 5,1 km/h (1 Bft)
24.06.2013 17:15 10,0 C 94 % 1022,6 hPa 0,0 l/m 5,1 km/h (1 Bft) S 180 9,1 C 10,2 C 9,3 km/h (2 Bft)
24.06.2013 17:20 9,6 C 94 % 1022,6 hPa 0,0 l/m 6,4 km/h (2 Bft) SO 135 8,7 C 9,2 C 4,7 km/h (1 Bft)
24.06.2013 17:25 9,7 C 94 % 1022,9 hPa 0,7 l/m 5,3 km/h (1 Bft) S-SO 157 8,8 C 9,3 C 1,8 km/h (1 Bft)
24.06.2013 17:30 9,8 C 94 % 1022,9 hPa 0,0 l/m 4,0 km/h (1 Bft) S-SO 157 8,9 C 9,6 C 3,4 km/h (1 Bft)
24.06.2013 17:35 10,0 C 94 % 1022,9 hPa 0,0 l/m 4,2 km/h (1 Bft) S 180 9,1 C 9,7 C 4,3 km/h (1 Bft)
24.06.2013 17:40 10,3 C 94 % 1022,9 hPa 0,0 l/m 3,9 km/h (1 Bft) O 90 9,4 C 10,0 C 3,7 km/h (1 Bft)
24.06.2013 17:45 10,5 C 94 % 1022,8 hPa 0,0 l/m 3,1 km/h (1 Bft) S 180 9,6 C 10,2 C 2,7 km/h (1 Bft)
24.06.2013 17:50 10,4 C 94 % 1022,8 hPa 0,0 l/m 2,4 km/h (1 Bft) S-SO 157 9,5 C 10,3 C 2,6 km/h (1 Bft)
24.06.2013 17:55 10,3 C 94 % 1022,8 hPa 0,0 l/m 2,1 km/h (1 Bft) S 180 9,4 C 10,3 C 0,0 km/h (0 Bft)
24.06.2013 18:00 10,3 C 94 % 1022,8 hPa 0,0 l/m 2,1 km/h (1 Bft) S 180 9,4 C 10,3 C 2,6 km/h (1 Bft)
24.06.2013 18:05 10,2 C 94 % 1022,9 hPa 0,0 l/m 2,1 km/h (1 Bft) SO 135 9,3 C 10,3 C 3,1 km/h (1 Bft)
24.06.2013 18:10 10,2 C 94 % 1022,9 hPa 0,0 l/m 2,1 km/h (1 Bft) S-SO 157 9,3 C 10,3 C 4,0 km/h (1 Bft)
24.06.2013 18:15 10,2 C 94 % 1022,9 hPa 0,0 l/m 2,3 km/h (1 Bft) SO 135 9,3 C 10,3 C 2,1 km/h (1 Bft)
24.06.2013 18:20 10,2 C 94 % 1022,9 hPa 0,0 l/m 3,1 km/h (1 Bft) S 180 9,3 C 10,2 C 3,1 km/h (1 Bft)
24.06.2013 18:25 10,1 C 94 % 1022,8 hPa 0,0 l/m 2,9 km/h (1 Bft) S-SO 157 9,2 C 10,1 C 4,2 km/h (1 Bft)
24.06.2013 18:30 10,1 C 94 % 1022,8 hPa 0,0 l/m 2,3 km/h (1 Bft) S 180 9,2 C 10,1 C 3,5 km/h (1 Bft)
24.06.2013 18:35 10,1 C 94 % 1022,8 hPa 0,0 l/m 2,6 km/h (1 Bft) S-SW 202 9,2 C 10,0 C 4,8 km/h (1 Bft)
24.06.2013 18:40 10,2 C 95 % 1022,8 hPa 0,0 l/m 2,7 km/h (1 Bft) O-SO 112 9,4 C 10,0 C 3,5 km/h (1 Bft)
24.06.2013 18:45 10,2 C 95 % 1022,9 hPa 0,7 l/m 2,3 km/h (1 Bft) S-SO 157 9,4 C 10,0 C 2,7 km/h (1 Bft)
24.06.2013 18:50 10,3 C 95 % 1022,9 hPa 0,0 l/m 2,4 km/h (1 Bft) SO 135 9,5 C 10,0 C 8,0 km/h (2 Bft)
24.06.2013 18:55 10,3 C 95 % 1022,9 hPa 0,0 l/m 2,6 km/h (1 Bft) S-SW 202 9,5 C 10,0 C 5,5 km/h (1 Bft)
24.06.2013 19:00 10,4 C 95 % 1022,9 hPa 0,0 l/m 2,6 km/h (1 Bft) S 180 9,6 C 10,1 C 3,5 km/h (1 Bft)
24.06.2013 19:05 10,3 C 95 % 1023,1 hPa 0,0 l/m 2,7 km/h (1 Bft) S 180 9,5 C 10,1 C 0,0 km/h (0 Bft)
24.06.2013 19:10 10,0 C 95 % 1023,1 hPa 0,0 l/m 2,7 km/h (1 Bft) O-SO 112 9,2 C 10,0 C 0,0 km/h (0 Bft)
24.06.2013 19:15 10,0 C 95 % 1023,1 hPa 0,0 l/m 2,3 km/h (1 Bft) S 180 9,2 C 10,0 C 4,3 km/h (1 Bft)
24.06.2013 19:20 10,0 C 95 % 1023,1 hPa 0,0 l/m 2,9 km/h (1 Bft) S-SO 157 9,2 C 9,9 C 4,5 km/h (1 Bft)
24.06.2013 19:25 10,0 C 95 % 1022,8 hPa 0,0 l/m 2,6 km/h (1 Bft) N-NO 22 9,2 C 9,9 C 1,8 km/h (1 Bft)
24.06.2013 19:30 10,0 C 95 % 1022,8 hPa 0,0 l/m 1,3 km/h (1 Bft) S 180 9,2 C 10,0 C 1,9 km/h (1 Bft)
24.06.2013 19:35 9,9 C 95 % 1022,8 hPa 0,0 l/m 1,6 km/h (1 Bft) S-SW 202 9,1 C 10,0 C 1,6 km/h (1 Bft)
24.06.2013 19:40 9,8 C 95 % 1022,8 hPa 0,0 l/m 2,6 km/h (1 Bft) SO 135 9,0 C 9,9 C 5,5 km/h (1 Bft)
24.06.2013 19:45 9,7 C 95 % 1023,0 hPa 0,0 l/m 2,4 km/h (1 Bft) S 180 8,9 C 9,9 C 2,3 km/h (1 Bft)
24.06.2013 19:50 9,6 C 95 % 1023,0 hPa 0,0 l/m 1,9 km/h (1 Bft) S-SO 157 8,8 C 9,9 C 3,2 km/h (1 Bft)
24.06.2013 19:55 9,6 C 95 % 1023,0 hPa 0,0 l/m 1,4 km/h (1 Bft) NO 45 8,8 C 9,9 C 0,0 km/h (0 Bft)
24.06.2013 20:00 9,6 C 95 % 1023,0 hPa 0,0 l/m 1,1 km/h (1 Bft) O-SO 112 8,8 C 9,9 C 2,1 km/h (1 Bft)
24.06.2013 20:05 9,6 C 95 % 1023,1 hPa 0,0 l/m 0,8 km/h (0 Bft) O 90 8,8 C 9,9 C 0,0 km/h (0 Bft)
24.06.2013 20:10 9,6 C 95 % 1023,1 hPa 0,0 l/m 1,1 km/h (1 Bft) S 180 8,8 C 9,9 C 0,0 km/h (0 Bft)
24.06.2013 20:15 9,6 C 95 % 1023,1 hPa 0,0 l/m 1,1 km/h (1 Bft) S 180 8,8 C 9,9 C 2,6 km/h (1 Bft)
24.06.2013 20:20 9,4 C 95 % 1023,1 hPa 0,0 l/m 0,8 km/h (0 Bft) O 90 8,6 C 9,9 C 2,4 km/h (1 Bft)
24.06.2013 20:25 9,4 C 95 % 1023,1 hPa 0,0 l/m 0,5 km/h (0 Bft) SW 225 8,6 C 9,8 C 1,8 km/h (1 Bft)
24.06.2013 20:30 9,3 C 95 % 1023,1 hPa 0,0 l/m 0,5 km/h (0 Bft) NO 45 8,5 C 9,7 C 0,0 km/h (0 Bft)
24.06.2013 20:35 9,4 C 95 % 1023,1 hPa 0,0 l/m 1,0 km/h (0 Bft) O-SO 112 8,6 C 9,7 C 0,0 km/h (0 Bft)
24.06.2013 20:40 9,4 C 95 % 1023,1 hPa 0,0 l/m 1,0 km/h (0 Bft) S-SO 157 8,6 C 9,7 C 0,0 km/h (0 Bft)
24.06.2013 20:45 9,4 C 95 % 1023,2 hPa 0,0 l/m 0,8 km/h (0 Bft) S 180 8,6 C 9,7 C 2,1 km/h (1 Bft)
24.06.2013 20:50 9,3 C 95 % 1023,2 hPa 0,0 l/m 1,0 km/h (0 Bft) NO 45 8,5 C 9,6 C 1,6 km/h (1 Bft)
24.06.2013 20:55 9,2 C 95 % 1023,2 hPa 0,0 l/m 1,6 km/h (1 Bft) S 180 8,4 C 9,6 C 4,5 km/h (1 Bft)
24.06.2013 21:00 8,9 C 95 % 1023,2 hPa 0,0 l/m 2,6 km/h (1 Bft) SO 135 8,1 C 9,4 C 1,8 km/h (1 Bft)
24.06.2013 21:05 8,9 C 95 % 1023,3 hPa 0,0 l/m 2,1 km/h (1 Bft) O-SO 112 8,1 C 9,3 C 2,9 km/h (1 Bft)
24.06.2013 21:10 8,9 C 95 % 1023,3 hPa 0,0 l/m 1,6 km/h (1 Bft) O-SO 112 8,1 C 9,2 C 3,2 km/h (1 Bft)
24.06.2013 21:15 8,8 C 95 % 1023,3 hPa 0,0 l/m 2,1 km/h (1 Bft) S 180 8,0 C 9,1 C 7,1 km/h (2 Bft)
24.06.2013 21:20 8,8 C 95 % 1023,3 hPa 0,0 l/m 2,3 km/h (1 Bft) O-SO 112 8,0 C 9,1 C 2,4 km/h (1 Bft)
24.06.2013 21:25 8,8 C 95 % 1023,4 hPa 0,0 l/m 3,2 km/h (1 Bft) O-NO 67 8,0 C 9,1 C 5,3 km/h (1 Bft)
24.06.2013 21:30 8,8 C 95 % 1023,4 hPa 0,0 l/m 2,6 km/h (1 Bft) SO 135 8,0 C 9,1 C 7,4 km/h (2 Bft)
24.06.2013 21:35 8,8 C 95 % 1023,4 hPa 0,0 l/m 2,3 km/h (1 Bft) S-SO 157 8,0 C 9,1 C 0,0 km/h (0 Bft)
24.06.2013 21:40 8,8 C 95 % 1023,4 hPa 0,0 l/m 3,1 km/h (1 Bft) O-SO 112 8,0 C 9,1 C 4,5 km/h (1 Bft)
24.06.2013 21:45 8,8 C 95 % 1023,6 hPa 0,0 l/m 3,9 km/h (1 Bft) S 180 8,0 C 9,1 C 9,0 km/h (2 Bft)
24.06.2013 21:50 8,9 C 95 % 1023,6 hPa 0,0 l/m 4,3 km/h (1 Bft) S 180 8,1 C 9,1 C 8,5 km/h (2 Bft)
24.06.2013 21:55 8,9 C 95 % 1023,6 hPa 0,0 l/m 4,3 km/h (1 Bft) S 180 8,1 C 9,1 C 10,1 km/h (2 Bft)
24.06.2013 22:00 9,0 C 95 % 1023,6 hPa 0,0 l/m 3,9 km/h (1 Bft) S 180 8,2 C 9,2 C 7,1 km/h (2 Bft)
24.06.2013 22:05 8,9 C 95 % 1023,8 hPa 0,0 l/m 3,9 km/h (1 Bft) S 180 8,1 C 9,3 C 4,3 km/h (1 Bft)
24.06.2013 22:10 8,9 C 96 % 1023,8 hPa 0,0 l/m 3,9 km/h (1 Bft) S-SW 202 8,3 C 9,2 C 0,0 km/h (0 Bft)
24.06.2013 22:15 9,0 C 95 % 1023,8 hPa 0,0 l/m 3,4 km/h (1 Bft) N 360 8,2 C 9,2 C 8,4 km/h (2 Bft)
24.06.2013 22:20 9,0 C 95 % 1023,8 hPa 0,0 l/m 4,3 km/h (1 Bft) S 180 8,2 C 9,2 C 11,7 km/h (2 Bft)
24.06.2013 22:25 9,0 C 95 % 1023,8 hPa 0,0 l/m 5,3 km/h (1 Bft) S 180 8,2 C 8,8 C 10,3 km/h (2 Bft)
24.06.2013 22:30 9,1 C 95 % 1023,8 hPa 0,0 l/m 7,2 km/h (2 Bft) SO 135 8,3 C 7,7 C 9,0 km/h (2 Bft)
24.06.2013 22:35 9,0 C 95 % 1023,8 hPa 0,0 l/m 7,9 km/h (2 Bft) S-SW 202 8,2 C 7,0 C 9,7 km/h (2 Bft)
24.06.2013 22:40 9,0 C 95 % 1023,8 hPa 0,0 l/m 7,2 km/h (2 Bft) S 180 8,2 C 7,7 C 8,4 km/h (2 Bft)
24.06.2013 22:45 9,0 C 95 % 1023,8 hPa 0,0 l/m 6,9 km/h (2 Bft) S 180 8,2 C 7,9 C 2,6 km/h (1 Bft)
24.06.2013 22:50 8,9 C 96 % 1023,8 hPa 0,0 l/m 6,8 km/h (2 Bft) S 180 8,3 C 7,9 C 8,2 km/h (2 Bft)
24.06.2013 22:55 8,8 C 96 % 1023,8 hPa 0,0 l/m 6,0 km/h (2 Bft) S 180 8,2 C 8,3 C 9,7 km/h (2 Bft)
24.06.2013 23:00 8,8 C 96 % 1023,8 hPa 0,0 l/m 4,5 km/h (1 Bft) W-SW 247 8,2 C 8,7 C 2,6 km/h (1 Bft)
24.06.2013 23:05 8,8 C 96 % 1023,9 hPa 0,0 l/m 4,0 km/h (1 Bft) S-SO 157 8,2 C 8,7 C 5,0 km/h (1 Bft)
24.06.2013 23:10 8,8 C 96 % 1023,9 hPa 0,0 l/m 3,9 km/h (1 Bft) S 180 8,2 C 8,7 C 2,7 km/h (1 Bft)
24.06.2013 23:15 8,7 C 96 % 1023,9 hPa 0,0 l/m 4,0 km/h (1 Bft) S-SO 157 8,1 C 8,7 C 3,2 km/h (1 Bft)
24.06.2013 23:20 8,7 C 96 % 1023,9 hPa 0,0 l/m 3,1 km/h (1 Bft) S-SO 157 8,1 C 8,7 C 4,2 km/h (1 Bft)
24.06.2013 23:25 8,7 C 96 % 1024,0 hPa 0,0 l/m 3,2 km/h (1 Bft) O-SO 112 8,1 C 8,7 C 1,6 km/h (1 Bft)
24.06.2013 23:30 8,7 C 96 % 1024,0 hPa 0,0 l/m 2,9 km/h (1 Bft) O-SO 112 8,1 C 8,7 C 3,7 km/h (1 Bft)
24.06.2013 23:35 8,8 C 96 % 1024,0 hPa 0,0 l/m 2,7 km/h (1 Bft) S-SO 157 8,2 C 8,7 C 2,4 km/h (1 Bft)
24.06.2013 23:40 8,8 C 96 % 1024,0 hPa 0,0 l/m 3,2 km/h (1 Bft) O-SO 112 8,2 C 8,7 C 3,4 km/h (1 Bft)
24.06.2013 23:45 8,8 C 96 % 1023,9 hPa 0,0 l/m 2,6 km/h (1 Bft) NO 45 8,2 C 8,8 C 1,9 km/h (1 Bft)
24.06.2013 23:50 8,8 C 96 % 1023,9 hPa 0,0 l/m 4,0 km/h (1 Bft) S-SW 202 8,2 C 8,8 C 4,8 km/h (1 Bft)
24.06.2013 23:55 8,8 C 96 % 1023,9 hPa 0,0 l/m 5,5 km/h (1 Bft) S-SW 202 8,2 C 8,3 C 12,4 km/h (3 Bft)
_ Min-Zeit 04:20 14:40 08:20 - 09:45 - - 04:20 22:35 22:10
Minimum _ 7,6 C 91 % 1020,7 hPa - 0,0 km/h (0 Bft) - - 7,0 C 7,0 C 0,0 km/h (0 Bft)
_ Max-Zeit 14:15 23:55 23:40 10:55 22:35 - - 14:10 14:15 11:00
Maximum _ 13,5 C 96 % 1024,0 hPa 1,4 l/m 7,9 km/h
S-SW (2 Bft)
- - 12,1 C 15,4 C 17,1 km/h
N-NO (3 Bft)
Durchschnitt _ 9,5 C 95 % 1022,1 hPa #9,6 l/m 2,0 km/h (1 Bft) S - 8,7 C 9,6 C 2,9 km/h (1 Bft)